Change the Weather History Date:

Monday, March 18, 2013

  Actual Average (KGON) Record (KGON)
Temperature  
Mean Temperature 28 °F -  
Max Temperature 34 °F 45 °F 73 °F (2011)
Min Temperature 21 °F 27 °F 6 °F (1967)
Degree Days  
Heating Degree Days 38    
Moisture  
Dew Point 17 °F    
Average Humidity 62    
Maximum Humidity 93    
Minimum Humidity 28    
Precipitation  
Precipitation 0.00 in - - ()
Sea Level Pressure  
Sea Level Pressure 30.32 in    
Wind  
Wind Speed 8 mph (East)    
Max Wind Speed 17 mph    
Max Gust Speed 24 mph    
Visibility 7 miles    
Events Snow    
Averages and records for this station are not official NWS values.
T = Trace of Precipitation, MM = Missing Value Source: NWS Daily Summary

Daily Weather History Graph

Daily Weather History Graph

Search for Another Location

Airport or City:

Trip Planner

Search our weather history database for the weather conditions in past years. The results will help you decide how hot, cold, wet, or windy it might be!

Date:

Astronomy

Mar. 18, 2013 Rise Set
Actual Time 6:53 AM EDT 6:57 PM EDT
Civil Twilight 6:26 AM EDT 7:25 PM EDT
Nautical Twilight 5:53 AM EDT 7:57 PM EDT
Astronomical Twilight 5:21 AM EDT 8:30 PM EDT
Moon 10:47 AM EDT (3/18) 12:57 AM EDT (3/18)
Length of Visible Light 12h 58m
Length of Day
12h 03m
Waxing Crescent, 40% of the Moon is Illuminated
Mar 18
Waxing Crescent
Mar 19
First Quarter
Mar 27
Full
Apr 3
Last Quarter
Apr 10
New

Hourly Weather History & Observations

Time (EDT) Temp. Windchill Dew Point Humidity Pressure Visibility Wind Dir Wind Speed Gust Speed Precip Events Conditions
12:53 AM 28.0 °F 21.7 °F 8.1 °F 43% 30.32 in 10.0 mi NNW 5.8 mph - N/A   Clear
1:53 AM 26.1 °F 20.5 °F 9.0 °F 49% 30.34 in 10.0 mi North 4.6 mph - N/A   Clear
2:53 AM 26.1 °F 19.4 °F 7.0 °F 44% 30.36 in 10.0 mi NNE 5.8 mph - N/A   Clear
3:53 AM 25.0 °F 17.1 °F 7.0 °F 46% 30.37 in 10.0 mi North 6.9 mph - N/A   Clear
4:53 AM 24.1 °F 16.0 °F 6.1 °F 46% 30.39 in 10.0 mi NNE 6.9 mph - N/A   Clear
5:53 AM 23.0 °F 17.0 °F 5.0 °F 46% 30.42 in 10.0 mi NE 4.6 mph - N/A   Clear
6:53 AM 21.9 °F 14.5 °F 5.0 °F 48% 30.43 in 10.0 mi North 5.8 mph - N/A   Clear
7:53 AM 23.0 °F 15.8 °F 6.1 °F 48% 30.45 in 10.0 mi NE 5.8 mph - N/A   Clear
8:53 AM 25.0 °F 15.5 °F 3.0 °F 39% 30.45 in 10.0 mi NNE 9.2 mph - N/A   Clear
9:53 AM 27.0 °F 23.0 °F -0.9 °F 30% 30.45 in 10.0 mi Variable 3.5 mph - N/A   Clear
10:53 AM 30.0 °F 22.4 °F -0.0 °F 28% 30.43 in 10.0 mi ENE 8.1 mph - N/A   Clear
11:53 AM 33.1 °F 26.9 °F 6.1 °F 32% 30.41 in 10.0 mi Variable 6.9 mph - N/A   Clear
12:53 PM 33.1 °F 24.4 °F 14.0 °F 46% 30.42 in 10.0 mi ESE 11.5 mph - N/A   Clear
1:53 PM 32.0 °F 23.6 °F 18.0 °F 56% 30.41 in 10.0 mi SE 10.4 mph - N/A   Clear
2:53 PM 33.1 °F 23.9 °F 19.0 °F 56% 30.36 in 10.0 mi East 12.7 mph - N/A   Clear
3:53 PM 33.1 °F 24.9 °F 19.0 °F 56% 30.35 in 10.0 mi East 10.4 mph - N/A   Partly Cloudy
4:53 PM 34.0 °F 26.0 °F 19.0 °F 54% 30.31 in 10.0 mi ESE 10.4 mph - N/A   Overcast
5:53 PM 34.0 °F 26.6 °F 19.9 °F 56% 30.30 in 10.0 mi East 9.2 mph - N/A   Overcast
6:53 PM 34.0 °F 26.6 °F 21.0 °F 59% 30.30 in 10.0 mi ESE 9.2 mph - N/A   Overcast
7:53 PM 34.0 °F 26.0 °F 24.1 °F 67% 30.28 in 10.0 mi SE 10.4 mph - N/A   Overcast
8:53 PM 34.0 °F 26.0 °F 24.1 °F 67% 30.27 in 10.0 mi ESE 10.4 mph - N/A   Overcast
9:15 PM 33.8 °F 23.2 °F 26.6 °F 75% 30.25 in 2.5 mi ESE 17.3 mph 21.9 mph 0.00 in Snow Light Snow
9:23 PM 32.0 °F 22.1 °F 26.6 °F 80% 30.25 in 1.2 mi SE 13.8 mph 24.2 mph 0.00 in Snow Light Snow
9:35 PM 30.2 °F 20.2 °F 26.6 °F 86% 30.26 in 1.2 mi SE 12.7 mph - 0.00 in Snow Light Snow
9:53 PM 30.0 °F 18.7 °F 28.0 °F 92% 30.25 in 0.8 mi ESE 16.1 mph 21.9 mph 0.00 in Snow Light Snow
10:07 PM 30.2 °F 20.2 °F 28.4 °F 93% 30.23 in 1.2 mi ESE 12.7 mph - 0.00 in Snow Light Snow
10:16 PM 30.2 °F 20.8 °F 28.4 °F 93% 30.22 in 3.0 mi East 11.5 mph - 0.00 in Snow Light Snow
10:53 PM 32.0 °F 22.5 °F 30.0 °F 92% 30.20 in 2.0 mi East 12.7 mph - 0.00 in Snow Light Snow
11:01 PM 32.0 °F 21.6 °F 28.4 °F 87% 30.20 in 1.8 mi ESE 15.0 mph 21.9 mph 0.00 in Snow Light Snow
11:24 PM 32.0 °F 21.6 °F 30.2 °F 93% 30.19 in 1.8 mi East 15.0 mph 20.7 mph 0.00 in Snow Light Snow
11:32 PM 32.0 °F 22.1 °F 30.2 °F 93% 30.18 in 1.8 mi East 13.8 mph 23.0 mph 0.00 in Snow Light Snow
11:53 PM 30.9 °F 20.7 °F 28.9 °F 92% 30.17 in 1.5 mi ENE 13.8 mph - 0.00 in Snow Light Snow